Jerez de la Frontera, Spain

9:48 AM CEST on March 28, 2017 (GMT +0200)
Jerez

Weather History for LEJR - December, 2012

Change the Weather History Date:

Saturday, December 8, 2012

  Actual Average Record
Temperature  
Mean Temperature 58 °F -  
Max Temperature 64 °F 60 °F 68 °F (2001)
Min Temperature 51 °F 42 °F 28 °F (1998)
Degree Days  
Heating Degree Days 8    
Growing Degree Days 8 (Base 50)    
Moisture  
Dew Point 55 °F    
Average Humidity 95    
Maximum Humidity 100    
Minimum Humidity 77    
Precipitation  
Precipitation 0.00 in 0.14 in - ()
Sea Level Pressure  
Sea Level Pressure 30.16 in    
Wind  
Wind Speed 3 mph ()    
Max Wind Speed 10 mph    
Max Gust Speed -    
Visibility 4.1 miles    
Events Fog    
Averages and records for this station are not official NWS values.
T = Trace of Precipitation, MM = Missing Value Source: Averaged Metar Reports

Daily Weather History Graph

Daily Weather History Graph

Search for Another Location

Airport or City:

Trip Planner

Search our weather history database for the weather conditions in past years. The results will help you decide how hot, cold, wet, or windy it might be!

Date:

Astronomy

Dec. 08, 2012 Rise Set
Actual Time 8:24 AM CET 6:08 PM CET
Civil Twilight 7:55 AM CET 6:36 PM CET
Nautical Twilight 7:23 AM CET 7:09 PM CET
Astronomical Twilight 6:52 AM CET 7:40 PM CET
Moon 2:40 AM CET (12/8) 2:23 PM CET (12/8)
Length of Visible Light 10h 40m
Length of Day
9h 43m
Waning Crescent, 31% of the Moon is Illuminated
Dec 8
Waning Crescent
Dec 13
New
Dec 20
First Quarter
Dec 28
Full
Jan 5
Last Quarter

Hourly Weather History & Observations

Time (CET) Temp. Dew Point Humidity Pressure Visibility Wind Dir Wind Speed Gust Speed Precip Events Conditions
1:00 AM 53 °F 53 °F 100% 30.12 in - ENE 2.3 mph - -   Unknown Precipitation
5:00 AM 55.4 °F 55.4 °F 100% 30.12 in 0.1 mi Calm Calm - N/A Fog Fog
5:30 AM 55.4 °F 55.4 °F 100% 30.09 in 0.1 mi Variable 2.3 mph - N/A Fog Fog
6:00 AM 55.4 °F 55.4 °F 100% 30.12 in 0.2 mi Calm Calm - N/A Fog Fog
6:30 AM 55.4 °F 55.4 °F 100% 30.12 in 0.1 mi Variable 1.2 mph - N/A Fog Fog
7:00 AM 55.4 °F 55.4 °F 100% 30.12 in 0.2 mi North 4.6 mph - N/A Fog Fog
7:30 AM 55.4 °F 55.4 °F 100% 30.12 in 0.4 mi Variable 1.2 mph - N/A Fog Patches of Fog
8:00 AM 55.4 °F 55.4 °F 100% 30.12 in 0.9 mi North 6.9 mph - N/A Fog Patches of Fog
8:30 AM 55.4 °F 55.4 °F 100% 30.15 in 1.1 mi Variable 2.3 mph - N/A   Mostly Cloudy
9:00 AM 55.4 °F 55.4 °F 100% 30.15 in 1.0 mi Calm Calm - N/A Fog Patches of Fog
9:30 AM 55.4 °F 55.4 °F 100% 30.15 in 0.2 mi Variable 1.2 mph - N/A Fog Patches of Fog
10:00 AM 55.4 °F 55.4 °F 100% 30.15 in 0.1 mi North 3.5 mph - N/A Fog Fog
10:30 AM 55.4 °F 55.4 °F 100% 30.18 in 1.0 mi NNE 5.8 mph - N/A Fog Patches of Fog
10:41 AM 55.4 °F 55.4 °F 100% 30.18 in 1.9 mi North 3.5 mph - N/A   Mostly Cloudy
11:00 AM 55.4 °F 55.4 °F 100% 30.18 in 2.8 mi Variable 2.3 mph - N/A   Mostly Cloudy
11:30 AM 55.4 °F 55.4 °F 100% 30.18 in 3.1 mi NNE 3.5 mph - N/A   Mostly Cloudy
12:00 PM 57.2 °F 57.2 °F 100% 30.21 in 4.3 mi Variable 1.2 mph - N/A   Mostly Cloudy
12:30 PM 57.2 °F 57.2 °F 100% 30.18 in 5.6 mi Variable 1.2 mph - N/A   Mostly Cloudy
12:46 PM 57.2 °F 57.2 °F 100% 30.18 in 5.6 mi Variable 1.2 mph - N/A   Mostly Cloudy
1:00 PM 58 °F 58 °F 100% 30.19 in 6 mi NNW 2.3 mph - -   Mist
1:00 PM 57.2 °F 57.2 °F 100% 30.18 in 5.6 mi Variable 1.2 mph - N/A   Mostly Cloudy
1:30 PM 59.0 °F 57.2 °F 94% 30.18 in 6.2 mi Calm Calm - N/A   Mostly Cloudy
2:00 PM 60.8 °F 57.2 °F 88% 30.15 in 6.2 mi Calm Calm - N/A   Mostly Cloudy
2:30 PM 62.6 °F 57.2 °F 82% 30.15 in 6.2 mi North 9.2 mph - N/A   Mostly Cloudy
3:00 PM 62.6 °F 57.2 °F 82% 30.15 in 6.2 mi North 9.2 mph - N/A   Scattered Clouds
3:30 PM 60.8 °F 57.2 °F 88% 30.15 in 6.2 mi North 9.2 mph - N/A   Scattered Clouds
4:00 PM 62.6 °F 55.4 °F 77% 30.15 in 6.2 mi NNE 6.9 mph - N/A   Scattered Clouds
4:30 PM 62.6 °F 57.2 °F 82% 30.15 in 6.2 mi North 6.9 mph - N/A   Scattered Clouds
5:00 PM 62.6 °F 57.2 °F 82% 30.15 in 6.2 mi North 9.2 mph - N/A   Scattered Clouds
5:30 PM 60.8 °F 55.4 °F 82% 30.15 in 6.2 mi North 8.1 mph - N/A   Partly Cloudy
6:00 PM 59.0 °F 55.4 °F 88% 30.15 in 6.2 mi North 6.9 mph - N/A   Partly Cloudy
6:30 PM 57.2 °F 53.6 °F 88% 30.18 in 6.2 mi NNW 3.5 mph - N/A   Partly Cloudy
7:00 PM 55 °F 54 °F 96% 30.19 in 16 mi North 6.9 mph - -   Scattered Clouds
7:00 PM 55.4 °F 53.6 °F 94% 30.18 in 6.2 mi North 5.8 mph - N/A   Partly Cloudy
7:30 PM 55.4 °F 53.6 °F 94% 30.18 in 6.2 mi NNW 5.8 mph - N/A   Partly Cloudy
8:00 PM 53.6 °F 51.8 °F 94% 30.18 in 6.2 mi Variable 2.3 mph - N/A   Partly Cloudy
8:30 PM 53.6 °F 51.8 °F 94% 30.21 in - Variable 2.3 mph - N/A   Clear
9:00 PM 51.8 °F 51.8 °F 100% 30.21 in - Variable 1.2 mph - N/A   Clear
9:30 PM 51.8 °F 51.8 °F 100% 30.21 in - North 3.5 mph - N/A   Clear
10:00 PM 51.8 °F 51.8 °F 100% 30.21 in - North 9.2 mph - N/A   Clear
10:30 PM 51.8 °F 51.8 °F 100% 30.21 in - North 8.1 mph - N/A   Clear
11:00 PM 51.8 °F 51.8 °F 100% 30.21 in - North 10.4 mph - N/A   Clear